Preview of NWS' New Version of Forecast
This preview is not operational and should not be used for support decisions.

Regional Weather Roundup (RWR)

Issued by Gray - Portland, ME (GYX)

                            
000
ASUS41 KGYX 170710
RWRGYX
WEATHER ROUNDUP FOR MAINE AND NEW HAMPSHIRE
NATIONAL WEATHER SERVICE GRAY ME
200 AM EST SUN FEB 17 2019

MEZ002-005-006-010-012-015-018-020-021-024-026-027-029-170800-
MAINE
  
CITY           SKY/WX    TMP DP  RH WIND       PRES   REMARKS
PORTLAND       FAIR      21  11  65 NW7       30.00R                  
SANFORD        FAIR      20  10  65 W7        30.00R                  
BAR HARBOR     FAIR      20  10  65 NW7       29.95R                  
WISCASSET      FAIR      20  10  65 CALM      30.00R                  
ROCKLAND       FAIR      20  10  65 W7        29.98R                  
FRYEBURG       FAIR      13   5  70 E3        29.98R                  
LEWISTONAUBURN FAIR      19  10  68 VRB3      29.98R                  
AUGUSTA        FAIR      18   7  62 NW5       29.97R                  
WATERVILLE     FAIR      16   8  71 NW8       29.94R                  
BANGOR         FAIR      19   8  62 NW7       29.95R                  
GREENVILLE       N/A     12   1  61 W10G24    29.83R WCI  -1          
MILLINOCKET    MOCLDY    16   6  65 W7        29.92R                  
HOULTON        FAIR      13   6  74 NW8       29.86R                  
PRESQUE ISLE   FLURRIES  13   7  77 W8        29.87R                  
FRENCHVILLE    FAIR       9   0  67 NW14      29.82R WCI  -7          
CARIBOU        FAIR      10   3  73 NW7       29.85R                  
$$

NHZ002-005-008-009-011-012-014-170800-
NEW HAMPSHIRE
  
CITY           SKY/WX    TMP DP  RH WIND       PRES   REMARKS
PORTSMOUTH     PTCLDY    22   9  56 W3        30.01R                  
ROCHESTER      NOT AVBL                                               
NASHUA         FAIR      22  10  60 NW7       30.04R                  
MANCHESTER     FAIR      22   9  57 NW8       30.02R                  
CONCORD        FAIR      19   9  65 NW12      30.02R WCI   7          
LACONIA        FAIR      19   9  65 VRB6      30.01S                  
PLYMOUTH       FAIR      18   9  67 NW5       30.03S                  
BERLIN         CLOUDY    16   7  67 VRB5      29.98R                  
WHITEFIELD     CLOUDY    17   7  64 W5        30.01R                  
JAFFREY        FAIR      20   9  62 N8        29.98R                  
KEENE          FAIR      20  11  68 CALM      30.04S                  
LEBANON        FAIR      17   5  59 NE3       30.05R                  
MT WASHINGTON  MOCLDY     0  -9  65 NW59        N/A  WCI -33          
$$

VTZ005-007-008-170800-
VERMONT
  
CITY           SKY/WX    TMP DP  RH WIND       PRES   REMARKS
ST JOHNSBURY     N/A     10   7  87 MISG      30.05R                  
MONTPELIER     FAIR      12   6  77 VRB3      30.06R                  
BURLINGTON     FAIR      15   4  61 CALM      30.12R                  
$$

MAZ007-012-024-CTZ003-RIZ002-NYZ038-NYZ072-170800-
SOUTHERN NEW ENGLAND AND NY
  
CITY           SKY/WX    TMP DP  RH WIND       PRES   REMARKS
BOSTON         FAIR      28  10  46 NW10      30.03R WCI  19          
WORCESTER      FAIR      22   9  57 NW8       29.98R                  
NANTUCKET      FAIR      32  22  66 N15       29.97R                  
PROVIDENCE     FAIR      28  16  60 NW10      30.02R WCI  19          
HARTFORD       FAIR      24  13  62 NW7       30.06R                  
ALBANY         FAIR      21  10  62 NW3       30.11R                  
NEW YORK CITY  FAIR      30  16  56 N9        30.06S                  
$$

ANZ081-ANZ082-ANZ150-NHZ014-MEZ023>029-170800-
COASTAL MARINE OBSERVATIONS
  
STATION/POSITION TIME  TEMP    WIND        PRES    WAVE
                       AIR SEA DIR/SP/G            HT/PER
                 (UTC) (F)     (DEG/KT/KT) (MB)    (FT/S)
MOUNT DESERT ROC 0700   25     290/ 21/ 25 1013.5R
MATINICUS ROCK   0600   25     310/ 20/ 22 1013.3R
ISLE OF SHOALS   0600   25     300/ 17/ 18 1015.6R
JEFFREYS LEDGE   0638      40                N/A     5/ 8
CASHES LEDGE BUO 0650   27 40              1014.1R   7/ 5
$$

.............KEY..............
   WCI - WIND CHILL
   TC  - TEMPERATURE IN CELSIUS
   VSB - VISIBILITY IN MILES
   HX  - HEAT INDEX
   FAIR- INDICATES FEW OR NO CLOUDS BELOW 12,000 FT, WITH NO 
         SIGNIFICANT WEATHER AND/OR OBSTRUCTIONS TO VISIBILITY.